Regional Weather Roundup
Issued by NWS

Home | Current Version | Previous Version | Graphics & Text | Print | Product List | Glossary On
Versions: 1 2 3 4 5 6 7 8 9 10 11 12 13 14 15 16 17 18 19 20 21 22 23 24 25 26 27 28 29 30 31 32 33 34 35 36 37 38 39 40 41 42 43 44 45 46 47 48 49 50
000
ASUS45 KCYS 230310
RWRWY

WYOMING REGIONAL WEATHER ROUNDUP
NATIONAL WEATHER SERVICE CHEYENNE WY
900 PM MDT FRI AUG 22 2014

NOTE:  "FAIR" INDICATES FEW OR NO CLOUDS BELOW 12,000 FEET
WITH NO SIGNIFICANT WEATHER AND/OR OBSTRUCTIONS TO VISIBILITY.

WYZ001-230400-
YELLOWSTONE NATIONAL PARK

CITY           SKY/WX    TMP DP  RH WIND       PRES   REMARKS
LK YELLOWSTONE   N/A     46  41  82 CALM      30.19S
W YELLOWSTONE  NOT AVBL

$$
WYZ002>013-054>058-071-098>099-230400-
NORTHERN WYOMING

CITY           SKY/WX    TMP DP  RH WIND       PRES   REMARKS
JACKSON        CLOUDY    48  45  87 CALM      30.12S
CODY           MOCLDY    57  52  82 NW8       30.05R
GREYBULL       CLOUDY    65  56  72 NW10      29.93S
WORLAND        CLOUDY    67  51  56 NE3       29.96R
SHERIDAN       LGT RAIN  61  55  81 NW8       30.02R
BUFFALO        LGT RAIN  57  53  86 W9        30.07R
GILLETTE       CLOUDY    60  58  92 NE14      30.02F
HULETT         RAIN      64  61  88 MISG      30.06
NEWCASTLE      FAIR      70  50  49 E14       30.02

$$
WYZ014>020-022>026-101>103-230400-
CENTRAL WYOMING

CITY           SKY/WX    TMP DP  RH WIND       PRES   REMARKS
BIG PINEY      LGT RAIN  48  45  89 E5        30.18S
PINEDALE       RAIN      45  45 100 CALM      30.19R
DUBOIS         RAIN      48  41  76 CALM      30.14S
LANDER         LGT RAIN  56  54  93 CALM      30.02F
RIVERTON       CLOUDY    57  53  86 SW13      30.04R
CASPER         CLOUDY    62  52  69 N7        30.01R
DOUGLAS        CLOUDY    66  57  72 SE10      30.01S

$$
WYZ021-027>030-104>119-230400-
SOUTHERN WYOMING

CITY           SKY/WX    TMP DP  RH WIND       PRES   REMARKS
EVANSTON       LGT RAIN  48  47  96 S7        30.17R
KEMMERER       CLOUDY    45  45 100 NW8       30.17R
FORT BRIDGER   CLOUDY    48  48  99 N7        30.20R
ROCK SPRINGS   LGT RAIN  53  47  79 NW14      30.14R
DIXON          FAIR      59  52  77 CALM      30.10R
RAWLINS        CLOUDY    65  44  46 SW7       30.08R
SARATOGA       MOCLDY    59  48  67 MISG      30.10R
LARAMIE        CLOUDY    57  51  80 SE17G24   30.13R
CHEYENNE       CLOUDY    58  55  90 S16G26    30.11R
TORRINGTON     CLOUDY    63  60  90 SE9       30.03R
PINE BLUFFS    LGT RAIN  59  55  88 SE21G30   30.06S

$$


USA.gov is the U.S. government's official web portal to all federal, state and local government web resources and services.